Torna al catalogo

HAWK-A

AttivoMilitareSSO
NORAD 43765·PAYLOAD·🇺🇸 United States

Lanciato Dec 3, 2018 da Vandenberg Space Force Base

Loading…

Prossimi Passaggi (prossime 24 ore)

TLE

AggiornatoSource: Space-Track

Epoca: Sep 14, 2026, 09:06 UTC

1 43765U 18099H   26257.37964618  .00004760  00000-0  18713-3 0  9998
2 43765  97.3818 308.4692 0033073 333.6044  26.3508 15.25647529426691

Traccia HAWK-A in tempo reale con AllMySat

Download on the App Store